sat.trackr.live / text

‹ back to catalog

STARLINK-34665

NORAD 65089 · 2025-167M

PAYLOAD ACTIVE UNKNOWN

§ Identity

Operator
Country
US
Launch date
2025-08-04
Launch site
AFETR
Launch vehicle
Mass (kg)
RCS (m²)

Purposes: comms

External: N2YO · Heavens-Above · Gunter

§ Orbital elements

Epoch: 2026-09-20T07:43:52.769856Z

Period
93.85 min
Inclination
53.1575°
Eccentricity
0.0001091
Mean motion
15.34430017 rev/d
Perigee alt
461.9 km
Apogee alt
463.4 km
Semi-major
6,840.8 km
B*
8.6621e-4
RAAN
202.2791°
Arg perigee
76.4214°
Mean anomaly
283.6910°
Rev number
6,328

§ Raw data

STARLINK-346651 65089U 25167M   26263.32213854  .00029031  00000+0  86621-3 0  99962 65089  53.1575 202.2791 0001091  76.4214 283.6910 15.34430017 63280

JSON: /api/v1/satellites/65089 · /tle

For live sub-satellite position, see the globe view (requires WebGL).

§ Visibility from observer

Set your observer location to see the next 7 days of passes ≥ 10°. The values pass through the URL so the page stays shareable.

No JS? Fill the form by hand. The geolocation button needs JavaScript.